Weather History for Delta, CO

Change the Weather History Date:

Thursday, September 26, 2013

  Actual Average (KMTJ) Record (KMTJ)
Temperature  
Mean Temperature 71 °F 58 °F  
Max Temperature 81 °F 73 °F 86 °F (2001)
Min Temperature 61 °F 43 °F 34 °F (2000)
Degree Days  
Heating Degree Days 0 7  
Month to date heating degree days 89  
Since 1 July heating degree days 94  
Cooling Degree Days 6 0  
Month to date cooling degree days 37  
Year to date cooling degree days 642  
Growing Degree Days 21 (Base 50)    
Moisture  
Dew Point 25 °F    
Average Humidity 19    
Maximum Humidity 47    
Minimum Humidity 10    
Precipitation  
Precipitation 0.00 in 0.05 in 0.29 in (2012)
Month to date precipitation 1.14  
Year to date precipitation 8.47  
Sea Level Pressure  
Sea Level Pressure 29.73 in    
Wind  
Wind Speed 11 mph (SSW)    
Max Wind Speed 24 mph    
Max Gust Speed 38 mph    
Visibility 10 miles    
Events      
T = Trace of Precipitation, MM = Missing Value Source: NWS Daily Summary

Daily Weather History Graph

Daily Weather History Graph

Search for Another Location

Airport:

Trip Planner

Search our weather history database for the weather conditions in past years. The results will help you decide how hot, cold, wet, or windy it might be!

Date:

Astronomy

Sep. 26, 2013 Rise Set
Actual Time 7:03 AM MDT 7:02 PM MDT
Civil Twilight 6:37 AM MDT 7:28 PM MDT
Nautical Twilight 6:06 AM MDT 7:59 PM MDT
Astronomical Twilight 5:35 AM MDT 8:31 PM MDT
Moon No Moon Rise 1:55 PM MDT (9/26)
Length of Visible Light 12h 51m
Length of Day
11h 58m
Waning Gibbous, 54% of the Moon is Illuminated
Sep 26
Waning Gibbous
Sep 26
Last Quarter
Oct 4
New
Oct 11
First Quarter
Oct 18
Full

Hourly Weather History & Observations

Time (MDT) Temp. Dew Point Humidity Pressure Visibility Wind Dir Wind Speed Gust Speed Precip Events Conditions
12:15 AM 70.9 °F 26.4 °F 19% 29.71 in 10.0 mi SSW 13.8 mph 20.7 mph N/A   Clear
12:35 AM 70.0 °F 26.8 °F 20% 29.71 in 10.0 mi SSW 17.3 mph 23.0 mph N/A   Clear
12:55 AM 68.7 °F 28.2 °F 22% 29.71 in 10.0 mi SW 6.9 mph 10.4 mph N/A   Clear
1:15 AM 68.0 °F 28.4 °F 23% 29.73 in 10.0 mi SW 6.9 mph - N/A   Clear
1:35 AM 69.6 °F 27.1 °F 20% 29.73 in 10.0 mi South 8.1 mph 17.3 mph N/A   Clear
1:55 AM 68.7 °F 27.3 °F 21% 29.73 in 10.0 mi SSW 12.7 mph 23.0 mph N/A   Clear
2:15 AM 69.1 °F 26.6 °F 20% 29.74 in 10.0 mi SW 12.7 mph 23.0 mph N/A   Clear
2:35 AM 68.5 °F 26.6 °F 21% 29.74 in 10.0 mi WSW 11.5 mph 26.5 mph N/A   Clear
2:55 AM 67.8 °F 26.8 °F 21% 29.74 in 10.0 mi WSW 6.9 mph - N/A   Clear
3:15 AM 66.7 °F 27.7 °F 23% 29.74 in 10.0 mi Calm Calm - N/A   Clear
3:35 AM 67.8 °F 25.5 °F 20% 29.75 in 10.0 mi SSW 5.8 mph 16.1 mph N/A   Clear
3:55 AM 65.8 °F 26.1 °F 22% 29.75 in 10.0 mi SSW 4.6 mph - N/A   Clear
4:15 AM 66.4 °F 24.3 °F 20% 29.75 in 10.0 mi SSW 12.7 mph 19.6 mph N/A   Clear
4:35 AM 66.2 °F 25.5 °F 22% 29.76 in 10.0 mi SSW 8.1 mph - N/A   Clear
4:55 AM 63.7 °F 27.0 °F 25% 29.76 in 10.0 mi Calm Calm - N/A   Clear
5:15 AM 64.9 °F 25.0 °F 22% 29.76 in 10.0 mi South 4.6 mph - N/A   Clear
5:35 AM 64.6 °F 24.6 °F 22% 29.76 in 10.0 mi SE 8.1 mph - N/A   Clear
5:55 AM 64.0 °F 25.5 °F 23% 29.76 in 10.0 mi SSE 4.6 mph - N/A   Clear
6:15 AM 67.1 °F 23.2 °F 19% 29.76 in 10.0 mi South 15.0 mph 23.0 mph N/A   Clear
6:35 AM 65.1 °F 23.9 °F 21% 29.76 in 10.0 mi South 6.9 mph - N/A   Clear
6:55 AM 65.3 °F 23.7 °F 21% 29.77 in 10.0 mi South 6.9 mph 16.1 mph N/A   Clear
7:15 AM 61.9 °F 26.4 °F 26% 29.77 in 10.0 mi ESE 3.5 mph - N/A   Clear
7:35 AM 64.6 °F 24.6 °F 22% 29.77 in 10.0 mi SSE 6.9 mph - N/A   Clear
7:55 AM 65.7 °F 27.0 °F 23% 29.77 in 10.0 mi Calm Calm - N/A   Clear
8:15 AM 66.9 °F 25.7 °F 21% 29.77 in 10.0 mi Calm Calm - N/A   Clear
8:35 AM 68.2 °F 26.2 °F 21% 29.77 in 10.0 mi SE 3.5 mph - N/A   Clear
8:55 AM 68.0 °F 28.2 °F 23% 29.77 in 10.0 mi ENE 5.8 mph - N/A   Clear
9:15 AM 69.3 °F 24.4 °F 19% 29.77 in 10.0 mi NE 3.5 mph - N/A   Clear
9:35 AM 71.1 °F 23.7 °F 17% 29.77 in 10.0 mi NE 5.8 mph - N/A   Clear
9:55 AM 72.5 °F 21.4 °F 15% 29.77 in 7.0 mi NNE 3.5 mph - N/A   Clear
10:15 AM 73.2 °F 20.3 °F 14% 29.77 in 10.0 mi Calm Calm - N/A   Clear
10:35 AM 73.2 °F 19.4 °F 13% 29.76 in 10.0 mi SSE 4.6 mph - N/A   Clear
10:55 AM 74.7 °F 23.5 °F 15% 29.76 in 10.0 mi East 6.9 mph - N/A   Clear
11:15 AM 74.7 °F 21.7 °F 14% 29.75 in 10.0 mi NE 4.6 mph - N/A   Clear
11:35 AM 75.0 °F 22.1 °F 14% 29.74 in 10.0 mi South 3.5 mph - N/A   Clear
11:55 AM 78.1 °F 21.6 °F 12% 29.73 in 10.0 mi South 11.5 mph 23.0 mph N/A   Clear
12:15 PM 78.4 °F 21.7 °F 12% 29.73 in 10.0 mi SW 21.9 mph 29.9 mph N/A   Clear
12:35 PM 78.6 °F 22.3 °F 12% 29.72 in 10.0 mi SW 17.3 mph 26.5 mph N/A   Clear
12:55 PM 79.3 °F 23.2 °F 13% 29.72 in 10.0 mi SSW 19.6 mph 26.5 mph N/A   Clear
1:15 PM 79.7 °F 22.3 °F 12% 29.72 in 7.0 mi SSW 23.0 mph 31.1 mph N/A   Clear
1:35 PM 79.7 °F 22.3 °F 12% 29.71 in 10.0 mi SW 15.0 mph 24.2 mph N/A   Clear
1:55 PM 80.1 °F 21.2 °F 11% 29.71 in 10.0 mi SW 19.6 mph 31.1 mph N/A   Clear
2:15 PM 80.2 °F 20.5 °F 11% 29.70 in 10.0 mi SW 24.2 mph 31.1 mph N/A   Clear
2:35 PM 81.5 °F 21.4 °F 11% 29.69 in 10.0 mi SW 23.0 mph 28.8 mph N/A   Clear
2:55 PM 80.1 °F 20.7 °F 11% 29.69 in 10.0 mi SSW 18.4 mph 38.0 mph N/A   Clear
3:15 PM 81.5 °F 20.7 °F 10% 29.69 in 10.0 mi SSW 24.2 mph 31.1 mph N/A   Clear
3:35 PM 81.0 °F 20.8 °F 11% 29.69 in 10.0 mi SSW 23.0 mph 32.2 mph N/A   Clear
3:55 PM 80.1 °F 20.5 °F 11% 29.68 in 10.0 mi SW 20.7 mph 35.7 mph N/A   Clear
4:15 PM 80.6 °F 21.0 °F 11% 29.68 in 10.0 mi SSW 20.7 mph 28.8 mph N/A   Clear
4:35 PM 79.7 °F 21.2 °F 11% 29.68 in 10.0 mi SSW 16.1 mph 28.8 mph N/A   Clear
4:55 PM 78.8 °F 22.1 °F 12% 29.67 in 10.0 mi SSW 13.8 mph 21.9 mph N/A   Clear
5:15 PM 78.8 °F 21.9 °F 12% 29.67 in 10.0 mi SW 19.6 mph 29.9 mph N/A   Clear
5:35 PM 79.7 °F 23.5 °F 13% 29.67 in 7.0 mi SSW 15.0 mph 20.7 mph N/A   Clear
5:55 PM 80.1 °F 22.6 °F 12% 29.67 in 10.0 mi SSW 20.7 mph 25.3 mph N/A   Clear
6:15 PM 79.2 °F 23.9 °F 13% 29.67 in 10.0 mi South 13.8 mph 21.9 mph N/A   Clear
6:35 PM 76.6 °F 27.1 °F 16% 29.67 in 10.0 mi SSW 11.5 mph 19.6 mph N/A   Clear
6:55 PM 74.3 °F 25.7 °F 16% 29.67 in 7.0 mi SSW 9.2 mph - N/A   Clear
7:15 PM 73.4 °F 25.3 °F 17% 29.68 in 10.0 mi SSW 9.2 mph 18.4 mph N/A   Clear
7:35 PM 72.9 °F 25.0 °F 17% 29.69 in 10.0 mi SSW 11.5 mph 19.6 mph N/A   Clear
7:55 PM 72.9 °F 24.4 °F 16% 29.69 in 10.0 mi SSW 11.5 mph 18.4 mph N/A   Clear
8:15 PM 71.8 °F 25.5 °F 18% 29.70 in 10.0 mi SSW 10.4 mph - N/A   Clear
8:35 PM 70.0 °F 27.3 °F 20% 29.71 in 10.0 mi SSW 8.1 mph - N/A   Clear
8:55 PM 70.3 °F 27.9 °F 21% 29.72 in 10.0 mi SW 6.9 mph - N/A   Scattered Clouds
9:15 PM 71.6 °F 28.0 °F 20% 29.74 in 10.0 mi SW 11.5 mph 21.9 mph N/A   Scattered Clouds
9:35 PM 71.8 °F 27.9 °F 20% 29.74 in 10.0 mi SW 17.3 mph - N/A   Scattered Clouds
9:55 PM 72.1 °F 27.9 °F 19% 29.74 in 10.0 mi SSW 19.6 mph 29.9 mph N/A   Clear
10:15 PM 70.7 °F 29.3 °F 21% 29.74 in 10.0 mi SW 8.1 mph - N/A   Clear
10:35 PM 71.6 °F 29.7 °F 21% 29.75 in 10.0 mi SW 9.2 mph 19.6 mph N/A   Scattered Clouds
10:55 PM 66.4 °F 38.7 °F 36% 29.77 in 10.0 mi WSW 21.9 mph 35.7 mph N/A   Mostly Cloudy
11:15 PM 65.5 °F 40.6 °F 40% 29.78 in 10.0 mi WSW 20.7 mph 31.1 mph N/A   Overcast
11:35 PM 64.2 °F 42.8 °F 46% 29.79 in 10.0 mi WSW 20.7 mph 38.0 mph N/A   Overcast
11:55 PM 63.3 °F 42.8 °F 47% 29.78 in 10.0 mi WSW 13.8 mph 24.2 mph N/A   Mostly Cloudy